GW7375 Weather Reports


time (UTC)temp
F
wind
direction
speed
knots
gust
knots
rain 1hr
in
rain 24hr
in
rain mn
in
humidity
%
barometer
mb
20260906173050 77 341 0.9 5.2 0.00 0.00 0.00 73 1019.8
20260906172548 77 54 0.0 4.3 0.00 0.00 0.00 73 1019.9
20260906172044 77 0 0.9 4.3 0.00 0.00 0.00 74 1020.1
20260906171607 76 168 1.7 4.3 0.00 0.00 0.00 76 1020.1
20260906171043 76 250 0.0 6.1 0.00 0.00 0.00 76 1020.2
20260906170545 76 0 0.9 6.1 0.00 0.00 0.00 76 1020.0
20260906170100 76 78 1.7 8.7 0.00 0.00 0.00 75 1020.0
20260906165543 76 112 2.6 8.7 0.00 0.00 0.00 75 1020.1
20260906165043 76 49 1.7 7.8 0.00 0.00 0.00 75 1020.0
20260906164549 76 93 0.9 4.3 0.00 0.00 0.00 76 1020.2
20260906164043 75 0 0.0 4.3 0.00 0.00 0.00 76 1020.1
20260906163543 75 51 0.0 6.1 0.00 0.00 0.00 77 1020.2
20260906163058 75 63 3.5 7.8 0.00 0.00 0.00 75 1020.3
20260906162543 74 57 1.7 7.8 0.00 0.00 0.00 77 1020.3
20260906162043 74 77 2.6 7.8 0.00 0.00 0.00 76 1020.2
20260906161549 74 76 0.0 4.3 0.00 0.00 0.00 79 1020.2
20260906161044 74 74 0.9 4.3 0.00 0.00 0.00 79 1020.2
20260906160543 74 105 0.9 4.3 0.00 0.00 0.00 78 1020.2
20260906160058 73 125 0.9 4.3 0.00 0.00 0.00 79 1020.3
20260906155543 73 208 0.9 4.3 0.00 0.00 0.00 79 1020.3
20260906155042 73 0 0.0 1.7 0.00 0.00 0.00 80 1020.2
20260906154559 72 0 0.0 3.5 0.00 0.00 0.00 80 1020.3
20260906154044 72 0 0.0 7.0 0.00 0.00 0.00 81 1020.4
20260906153547 72 209 0.9 7.0 0.00 0.00 0.00 81 1020.4
20260906153103 71 42 0.0 3.5 0.00 0.00 0.00 81 1020.5
20260906152546 71 65 0.9 3.5 0.00 0.00 0.00 82 1020.5
20260906152045 71 0 0.9 3.5 0.00 0.00 0.00 83 1020.5
20260906151600 70 0 0.0 3.5 0.00 0.00 0.00 83 1020.4
20260906151043 70 0 0.9 4.3 0.00 0.00 0.00 83 1020.3
20260906150542 70 0 1.7 4.3 0.00 0.00 0.00 84 1020.3
20260906150056 70 74 1.7 4.3 0.00 0.00 0.00 85 1020.3
20260906145544 69 0 0.0 6.1 0.00 0.00 0.00 86 1020.2
20260906145042 69 76 0.0 6.1 0.00 0.00 0.00 86 1020.3
20260906144552 69 58 1.7 6.1 0.00 0.00 0.00 87 1020.2
20260906144042 69 44 2.6 6.1 0.00 0.00 0.00 87 1020.1
20260906143542 68 30 1.7 5.2 0.00 0.00 0.00 88 1020.1
20260906143050 68 49 1.7 5.2 0.00 0.00 0.00 88 1020.1
20260906142542 68 66 2.6 5.2 0.00 0.00 0.00 89 1020.0
20260906142045 68 59 1.7 4.3 0.00 0.00 0.00 90 1020.0
20260906141550 68 70 0.0 2.6 0.00 0.00 0.00 90 1019.9
20260906141042 67 0 0.0 2.6 0.00 0.00 0.00 91 1019.8
20260906140542 67 52 0.0 2.6 0.00 0.00 0.00 91 1019.8
20260906140059 67 0 0.0 1.7 0.00 0.00 0.00 91 1019.7
20260906135542 67 65 0.0 1.7 0.00 0.00 0.00 91 1019.7
20260906135042 67 0 0.0 1.7 0.00 0.00 0.00 92 1019.8
20260906134603 67 0 0.0 1.7 0.00 0.00 0.00 92 1019.8
20260906134042 67 0 0.0 2.6 0.00 0.00 0.00 92 1019.9
20260906133541 67 0 0.0 2.6 0.00 0.00 0.00 92 1020.0
20260906133054 67 0 0.0 1.7 0.00 0.00 0.00 92 1020.0
20260906132546 66 0 0.0 1.7 0.00 0.00 0.00 92 1020.1
20260906132042 66 0 0.0 0.9 0.00 0.00 0.00 92 1020.1
20260906131600 66 0 0.0 1.7 0.00 0.00 0.00 92 1020.2
20260906131042 66 0 0.0 1.7 0.00 0.00 0.00 92 1020.2
20260906130542 66 51 0.0 2.6 0.00 0.00 0.00 92 1020.2
20260906130100 66 0 0.0 2.6 0.00 0.00 0.00 92 1020.2
20260906125542 66 28 0.0 3.5 0.00 0.00 0.00 92 1020.2
20260906125041 66 53 1.7 3.5 0.00 0.00 0.00 92 1020.2
20260906124559 66 82 0.9 4.3 0.00 0.00 0.00 92 1020.2
20260906124042 66 0 0.9 4.3 0.00 0.00 0.00 92 1020.1
20260906123541 66 67 0.0 3.5 0.00 0.00 0.00 92 1020.1
20260906123053 66 95 0.9 3.5 0.00 0.00 0.00 92 1019.9
20260906122545 66 0 0.9 3.5 0.00 0.00 0.00 92 1019.8
20260906122043 66 88 0.9 3.5 0.00 0.00 0.00 92 1019.9
20260906121556 66 59 0.9 3.5 0.00 0.00 0.00 92 1019.9
20260906121043 66 65 0.9 3.5 0.00 0.00 0.00 92 1019.8
20260906120541 66 65 0.9 2.6 0.00 0.00 0.00 92 1019.5
20260906120113 66 72 0.9 2.6 0.00 0.00 0.00 92 1019.3
20260906115542 66 80 0.9 2.6 0.00 0.00 0.00 92 1019.3
20260906115041 66 70 0.0 1.7 0.00 0.00 0.00 92 1019.1
20260906114553 66 0 0.0 7.0 0.00 0.00 0.00 92 1019.0
20260906114041 66 0 1.7 7.0 0.00 0.00 0.00 92 1018.9
20260906113542 66 86 1.7 3.5 0.00 0.00 0.00 92 1018.8
20260906113102 66 0 0.0 3.5 0.00 0.00 0.00 92 1018.8
20260906112542 66 0 0.0 3.5 0.00 0.00 0.00 92 1018.8
20260906112042 66 0 0.9 3.5 0.00 0.00 0.00 92 1018.7
20260906111605 66 69 0.0 3.5 0.00 0.00 0.00 92 1018.7
20260906111042 66 0 0.0 3.5 0.00 0.00 0.00 92 1018.7
20260906110543 66 0 0.0 3.5 0.00 0.00 0.00 92 1018.8
20260906110059 66 80 1.7 5.2 0.00 0.00 0.00 92 1018.8
20260906105542 66 0 0.0 6.1 0.00 0.00 0.00 92 1018.8
20260906105041 66 89 1.7 6.1 0.00 0.00 0.00 92 1018.8
20260906104556 66 59 1.7 5.2 0.00 0.00 0.00 92 1018.8
20260906104042 66 0 1.7 5.2 0.00 0.00 0.00 92 1018.7
20260906103545 66 52 0.9 6.1 0.00 0.00 0.00 92 1018.7
20260906103052 66 97 2.6 6.1 0.00 0.00 0.00 92 1018.6
20260906102542 66 62 0.9 2.6 0.00 0.00 0.00 91 1018.7
20260906102046 66 57 0.9 3.5 0.00 0.00 0.00 91 1018.6
20260906101550 66 69 1.7 3.5 0.00 0.00 0.00 91 1018.5
20260906101042 66 79 0.9 2.6 0.00 0.00 0.00 91 1018.4
20260906100543 67 0 0.0 1.7 0.00 0.00 0.00 91 1018.4
20260906100059 67 207 0.0 3.5 0.00 0.00 0.00 91 1018.2
20260906095542 67 0 0.0 3.5 0.00 0.00 0.00 91 1018.1
20260906095042 67 82 1.7 3.5 0.00 0.00 0.00 91 1018.1
20260906094554 67 0 0.9 4.3 0.00 0.00 0.00 91 1018.1
20260906094042 67 77 0.9 4.3 0.00 0.00 0.00 91 1018.0
20260906093542 67 79 1.7 4.3 0.00 0.00 0.00 91 1017.9
20260906093054 67 57 1.7 4.3 0.00 0.00 0.00 91 1017.7
20260906092545 67 75 0.9 5.2 0.00 0.00 0.00 91 1017.7
20260906092042 67 71 2.6 7.0 0.00 0.00 0.00 91 1017.8
20260906091549 67 82 1.7 7.0 0.00 0.00 0.00 91 1017.8
20260906091045 67 92 2.6 7.0 0.00 0.00 0.00 91 1017.9
20260906090543 67 90 1.7 7.0 0.00 0.00 0.00 91 1017.9
20260906090056 67 63 1.7 6.1 0.00 0.00 0.00 91 1017.9
20260906085543 68 66 2.6 6.1 0.00 0.00 0.00 91 1018.0
20260906085044 68 69 0.9 4.3 0.00 0.00 0.00 91 1018.0
20260906084556 68 0 0.9 4.3 0.00 0.00 0.00 91 1018.0
20260906084043 68 52 1.7 5.2 0.00 0.00 0.00 91 1018.0
20260906083543 68 84 1.7 5.2 0.00 0.00 0.00 91 1018.0
20260906083102 68 98 0.9 3.5 0.00 0.00 0.00 91 1018.1
20260906082542 68 0 0.0 7.0 0.00 0.00 0.00 91 1018.2
20260906082045 68 22 1.7 7.0 0.00 0.00 0.00 91 1018.2
20260906081555 68 56 1.7 4.3 0.00 0.00 0.00 91 1018.3
20260906081042 68 32 0.9 3.5 0.00 0.00 0.00 91 1018.2
20260906080544 68 31 0.9 5.2 0.00 0.00 0.00 91 1018.0
20260906080057 68 56 0.9 5.2 0.00 0.00 0.00 91 1018.0
20260906075542 68 78 0.9 4.3 0.00 0.00 0.00 91 1018.1
20260906075042 68 74 1.7 5.2 0.00 0.00 0.00 91 1018.2
20260906074601 68 88 1.7 5.2 0.00 0.00 0.00 91 1018.3
20260906074044 68 73 0.0 2.6 0.00 0.00 0.00 91 1018.3
20260906073542 68 0 0.0 2.6 0.00 0.00 0.00 91 1018.4
20260906073052 68 0 0.0 1.7 0.00 0.00 0.00 91 1018.3
20260906072543 68 0 0.0 2.6 0.00 0.00 0.00 91 1018.3
20260906072042 68 0 0.0 2.6 0.00 0.00 0.00 91 1018.2
20260906071559 68 0 0.0 3.5 0.00 0.00 0.00 91 1018.2
20260906071043 68 80 0.0 4.3 0.00 0.00 0.00 91 1018.4
20260906070542 68 59 1.7 4.3 0.00 0.00 0.00 91 1018.5
20260906065542 68 82 0.9 3.5 0.00 0.00 0.00 91 1018.7
20260906065042 68 75 1.7 3.5 0.00 0.00 0.00 91 1018.7
20260906064548 68 67 0.0 2.6 0.00 0.00 0.00 91 1018.7
20260906064041 68 55 0.0 2.6 0.00 0.00 0.00 91 1018.7
20260906063542 68 0 0.9 2.6 0.00 0.00 0.00 91 1018.6
20260906063058 68 84 0.0 2.6 0.00 0.00 0.00 91 1018.6
20260906062540 68 84 0.0 2.6 0.00 0.00 0.00 91 1018.7
20260906062043 68 0 0.0 2.6 0.00 0.00 0.00 91 1018.8
20260906061558 68 0 0.9 2.6 0.00 0.00 0.00 91 1018.8
20260906061042 68 0 0.0 0.0 0.00 0.00 0.00 91 1018.7
20260906060542 68 0 0.0 0.0 0.00 0.00 0.00 91 1018.7
20260906060059 68 0 0.0 0.0 0.00 0.00 0.00 91 1018.6
20260906055542 69 0 0.0 0.0 0.00 0.00 0.00 91 1018.6
20260906055041 69 0 0.0 0.0 0.00 0.00 0.00 91 1018.6
20260906054559 69 0 0.0 0.0 0.00 0.00 0.00 91 1018.6
20260906054044 69 0 0.0 0.0 0.00 0.00 0.00 91 1018.5
20260906053541 69 0 0.0 0.0 0.00 0.00 0.00 91 1018.5
20260906053054 69 0 0.0 0.0 0.00 0.00 0.00 90 1018.5
20260906052543 69 0 0.0 0.0 0.00 0.00 0.00 90 1018.5
20260906052043 69 0 0.0 0.0 0.00 0.00 0.00 90 1018.4
20260906051600 69 0 0.0 0.0 0.00 0.00 0.00 90 1018.3
20260906051041 69 0 0.0 0.0 0.00 0.00 0.00 90 1018.3
20260906050542 69 0 0.0 0.9 0.00 0.00 0.00 90 1018.4
20260906050049 69 0 0.0 0.9 0.00 0.00 0.00 90 1018.3
20260906045545 70 85 0.0 0.9 0.00 0.00 0.00 90 1018.3
20260906045047 70 0 0.0 1.7 0.00 0.00 0.00 90 1018.3
20260906044553 70 0 0.0 1.7 0.00 0.00 0.00 89 1018.2
20260906044042 70 0 0.0 0.0 0.00 0.00 0.00 90 1018.2
20260906043542 70 0 0.0 0.9 0.00 0.00 0.00 90 1018.3
20260906043100 70 0 0.0 2.6 0.00 0.00 0.00 89 1018.3
20260906042541 70 0 0.0 2.6 0.00 0.00 0.00 89 1018.4
20260906042042 71 0 0.0 1.7 0.00 0.00 0.00 89 1018.5
20260906041605 71 0 0.0 0.9 0.00 0.00 0.00 89 1018.6
20260906041043 71 0 0.0 0.9 0.00 0.00 0.00 89 1018.6
20260906040542 71 0 0.0 1.7 0.00 0.00 0.00 89 1018.6
20260906040051 71 0 0.0 1.7 0.00 0.00 0.00 88 1018.6
20260906035542 71 44 0.0 1.7 0.00 0.00 0.00 88 1018.5
20260906035117 71 0 0.0 1.7 0.00 0.00 0.00 88 1018.4
20260906034039 72 42 0.9 4.3 0.00 0.00 0.00 88 1018.1
20260906033543 72 74 0.9 4.3 0.00 0.00 0.00 87 1018.0
20260906033054 72 59 0.9 4.3 0.00 0.00 0.00 87 1017.9
20260906032542 72 0 0.9 3.5 0.00 0.00 0.00 87 1017.7
20260906032043 72 59 1.7 3.5 0.00 0.00 0.00 87 1017.7
20260906031601 72 88 0.9 3.5 0.00 0.00 0.00 87 1017.6
20260906031043 72 82 1.7 3.5 0.00 0.00 0.00 87 1017.5
20260906030544 73 74 0.9 3.5 0.00 0.00 0.00 87 1017.5
20260906030108 73 0 0.0 2.6 0.00 0.00 0.00 86 1017.5
20260906025542 73 0 0.0 2.6 0.00 0.00 0.00 86 1017.4
20260906025042 73 0 0.0 4.3 0.00 0.00 0.00 86 1017.3
20260906024611 73 0 0.0 5.2 0.00 0.00 0.00 87 1017.2
20260906024043 73 0 0.9 5.2 0.00 0.00 0.00 87 1017.2
20260906023542 72 99 0.9 3.5 0.00 0.00 0.00 87 1017.2
20260906023103 72 74 0.9 3.5 0.00 0.00 0.00 87 1017.3
20260906022544 72 0 0.0 2.6 0.00 0.00 0.00 87 1017.3
20260906022043 72 0 0.0 5.2 0.00 0.00 0.00 87 1017.1
20260906021559 72 122 0.9 5.2 0.00 0.00 0.00 87 1017.0
20260906021042 72 163 0.0 2.6 0.00 0.00 0.00 87 1016.9
20260906020542 72 0 0.0 2.6 0.00 0.00 0.00 87 1016.8
20260906020149 72 80 0.0 1.7 0.00 0.00 0.00 87 1016.9
20260906015542 72 0 0.0 1.7 0.00 0.00 0.00 87 1016.9
20260906015041 73 0 0.0 0.9 0.00 0.00 0.00 87 1016.7
20260906014607 73 0 0.0 3.5 0.00 0.00 0.00 87 1016.6
20260906014042 73 0 0.0 3.5 0.00 0.00 0.00 87 1016.5
20260906013544 73 82 0.0 2.6 0.00 0.00 0.00 87 1016.4
20260906013103 73 0 0.0 0.0 0.00 0.00 0.00 87 1016.4
20260906012543 73 0 0.0 0.0 0.00 0.00 0.00 86 1016.3
20260906012042 73 0 0.0 0.0 0.00 0.00 0.00 86 1016.2
20260906011603 74 0 0.0 0.0 0.00 0.00 0.00 86 1016.1
20260906011042 74 0 0.0 0.0 0.00 0.00 0.00 85 1015.9
20260906010542 74 0 0.0 0.0 0.00 0.00 0.00 85 1015.8
20260906010119 75 0 0.0 0.0 0.00 0.00 0.00 84 1015.7
20260906005542 75 0 0.0 0.0 0.00 0.00 0.00 84 1015.7
20260906005042 75 0 0.0 0.0 0.00 0.00 0.00 83 1015.6
20260906004602 75 0 0.0 0.0 0.00 0.00 0.00 83 1015.6
20260906004042 75 0 0.0 0.0 0.00 0.00 0.00 83 1015.6
20260906003543 76 0 0.0 0.0 0.00 0.00 0.00 82 1015.7
20260906003118 76 0 0.0 0.0 0.00 0.00 0.00 82 1015.6
20260906002543 76 0 0.0 0.0 0.00 0.00 0.00 82 1015.6
20260906002044 76 0 0.0 0.0 0.00 0.00 0.00 81 1015.6
20260906001558 76 0 0.0 1.7 0.00 0.00 0.00 81 1015.5
20260906001040 76 0 0.0 2.6 0.00 0.00 0.00 81 1015.4
20260906000545 77 0 0.0 2.6 0.00 0.00 0.00 80 1015.4
20260906000103 77 62 0.9 1.7 0.00 0.00 0.00 79 1015.4
20260905235541 77 0 0.0 0.0 0.00 0.00 0.00 79 1015.5
20260905235042 77 0 0.0 0.9 0.00 0.00 0.00 79 1015.6
20260905234603 77 0 0.0 0.9 0.00 0.00 0.00 79 1015.6
20260905234046 77 69 0.0 0.9 0.00 0.00 0.00 78 1015.7
20260905233543 77 0 0.0 0.9 0.00 0.00 0.00 78 1015.7
20260905233102 77 0 0.0 2.6 0.00 0.00 0.00 79 1015.8
20260905232541 77 0 0.0 2.6 0.00 0.00 0.00 79 1015.6
20260905232042 77 51 0.0 3.5 0.00 0.00 0.00 78 1015.7
20260905231559 77 76 1.7 3.5 0.00 0.00 0.00 78 1015.8
20260905231041 77 80 0.9 3.5 0.00 0.00 0.00 78 1015.8
20260905230545 77 69 0.9 2.6 0.00 0.00 0.00 78 1015.8
20260905230053 77 51 0.0 4.3 0.00 0.00 0.00 77 1015.9
20260905225541 77 70 0.9 4.3 0.00 0.00 0.00 76 1015.9
20260905225041 77 55 1.7 3.5 0.00 0.00 0.00 77 1016.0
20260905224551 77 0 0.0 3.5 0.00 0.00 0.00 76 1016.0
20260905224042 78 82 0.9 3.5 0.00 0.00 0.00 76 1016.0
20260905223541 78 0 0.9 5.2 0.00 0.00 0.00 76 1016.0
20260905223049 78 82 0.9 6.1 0.00 0.00 0.00 76 1016.1
20260905222541 78 69 1.7 6.1 0.00 0.00 0.00 75 1016.0
20260905222042 78 51 1.7 7.0 0.00 0.00 0.00 75 1016.1
20260905221555 78 65 1.7 8.7 0.00 0.00 0.00 75 1016.0
20260905221045 78 62 3.5 8.7 0.00 0.00 0.00 74 1016.0
20260905220541 78 56 2.6 7.0 0.00 0.00 0.00 75 1016.1
20260905220053 78 77 0.9 7.0 0.00 0.00 0.00 75 1016.1
20260905215539 78 58 1.7 7.0 0.00 0.00 0.00 74 1016.2
20260905215044 78 86 2.6 7.0 0.00 0.00 0.00 74 1016.2
20260905214549 79 39 2.6 7.8 0.00 0.00 0.00 74 1016.2
20260905214041 79 69 1.7 7.8 0.00 0.00 0.00 74 1016.3
20260905213544 80 67 4.3 8.7 0.00 0.00 0.00 73 1016.3
20260905213058 80 86 3.5 8.7 0.00 0.00 0.00 72 1016.4
20260905212542 80 92 2.6 8.7 0.00 0.00 0.00 73 1016.5
20260905212042 80 80 3.5 8.7 0.00 0.00 0.00 73 1016.6
20260905211552 80 66 2.6 8.7 0.00 0.00 0.00 73 1016.5
20260905211042 80 63 3.5 8.7 0.00 0.00 0.00 74 1016.5
20260905210544 80 101 2.6 10.4 0.00 0.00 0.00 74 1016.6
20260905210050 80 12 4.3 10.4 0.00 0.00 0.00 74 1016.5
20260905205544 80 111 2.6 8.7 0.00 0.00 0.00 75 1016.5
20260905205041 80 79 2.6 8.7 0.00 0.00 0.00 76 1016.4
20260905204558 80 67 2.6 9.6 0.00 0.00 0.00 76 1016.4
20260905204045 80 47 4.3 9.6 0.00 0.00 0.00 75 1016.4
20260905203541 80 74 6.1 9.6 0.00 0.00 0.00 75 1016.4
20260905203059 80 16 4.3 9.6 0.00 0.00 0.00 77 1016.5
20260905202542 80 119 4.3 8.7 0.00 0.00 0.00 76 1016.4
20260905202042 80 69 0.9 6.1 0.00 0.00 0.00 76 1016.5
20260905201552 80 111 2.6 7.0 0.00 0.00 0.00 77 1016.6
20260905201041 80 68 3.5 7.0 0.00 0.00 0.00 76 1016.5
20260905200541 80 54 1.7 10.4 0.00 0.00 0.00 77 1016.6
20260905200056 80 105 4.3 10.4 0.00 0.00 0.00 76 1016.6
20260905195541 80 44 1.7 5.2 0.00 0.00 0.00 77 1016.6
20260905195041 80 101 0.9 7.8 0.00 0.00 0.00 76 1016.6
20260905194549 81 58 1.7 7.8 0.00 0.00 0.00 75 1016.6
20260905194043 81 44 2.6 7.8 0.00 0.00 0.00 75 1016.7
20260905193541 81 54 2.6 7.8 0.00 0.00 0.00 76 1016.7
20260905193107 81 65 2.6 7.8 0.00 0.00 0.00 76 1016.7
20260905192541 80 69 2.6 7.0 0.00 0.00 0.00 77 1016.7
20260905192041 80 55 2.6 6.1 0.00 0.00 0.00 77 1016.7
20260905191558 80 36 1.7 5.2 0.00 0.00 0.00 76 1016.9
20260905191042 80 28 0.9 5.2 0.00 0.00 0.00 76 1017.1
20260905190542 80 46 2.6 7.0 0.00 0.00 0.00 76 1017.1
20260905190103 80 61 3.5 7.0 0.00 0.00 0.00 76 1017.1
20260905185541 80 36 0.9 6.1 0.00 0.00 0.00 75 1017.0
20260905185041 81 0 1.7 6.1 0.00 0.00 0.00 74 1016.9
20260905184609 81 70 1.7 7.8 0.00 0.00 0.00 75 1016.8
20260905184042 81 82 3.5 7.8 0.00 0.00 0.00 75 1016.7
20260905183541 81 90 4.3 8.7 0.00 0.00 0.00 74 1016.7
20260905183057 81 68 3.5 8.7 0.00 0.00 0.00 75 1016.7
20260905182542 81 49 3.5 8.7 0.00 0.00 0.00 77 1016.7
20260905182042 80 360 3.5 7.0 0.00 0.00 0.00 79 1016.7
20260905181551 80 0 0.0 6.1 0.00 0.00 0.00 79 1016.7
20260905181042 79 70 2.6 6.1 0.00 0.00 0.00 78 1016.8
20260905180544 79 50 1.7 5.2 0.00 0.00 0.00 78 1016.9
20260905180048 79 36 1.7 5.2 0.00 0.00 0.00 77 1017.0
20260905175542 80 50 1.7 4.3 0.00 0.00 0.00 76 1017.1
20260905175041 80 134 0.9 5.2 0.00 0.00 0.00 76 1017.2
20260905174556 80 0 0.0 5.2 0.00 0.00 0.00 77 1017.2
20260905174041 79 74 0.9 4.3 0.00 0.00 0.00 77 1017.2
20260905173542 79 0 1.7 6.1 0.00 0.00 0.00 79 1017.2